Regional Weather Roundup
Issued by NWS Cleveland, OH

Home | Current Version | Previous Version | Graphics & Text | Print | Product List | Glossary On
Versions: 1 2 3 4 5 6 7 8 9 10 11 12 13 14 15 16 17 18 19 20 21 22 23 24 25 26 27 28 29 30 31 32 33 34 35 36 37 38 39 40 41 42 43 44 45 46 47 48 49 50
000
ASUS41 KCLE 280502
RWRCLE
OHIO REGIONAL WEATHER ROUNDUP
NATIONAL WEATHER SERVICE CLEVELAND, OH
100 AM EDT WED JUN 28 2017

NOTE: "FAIR" INDICATES FEW OR NO CLOUDS BELOW 12,000 FEET WITH NO
SIGNIFICANT WEATHER AND/OR OBSTRUCTIONS TO VISIBILITY.

OHZ001>008-015>018-024>027-034-035-043-044-280600-
   NORTHWEST OHIO

CITY           SKY/WX    TMP DP  RH WIND       PRES   REMARKS
DEFIANCE       CLEAR     53  49  86 CALM      30.10R
FINDLAY        CLEAR     57  48  72 S7        30.10R
TOLEDO EXPRESS CLEAR     53  50  89 CALM      30.09R
TOLEDO EXEC    CLEAR     61  51  70 SW5       30.09S
LIMA           CLEAR     58  49  72 S8        30.12R
$$

OHZ009>014-019>023-028>033-038-089-280600-
   NORTHEAST OHIO

CITY           SKY/WX    TMP DP  RH WIND       PRES   REMARKS
CLE-HOPKINS    PTCLDY    63  45  51 S8        30.11S
CLE-LAKEFRONT  PTCLDY    63  44  50 S10       30.08S
CUY CO. ARPT   NOT AVBL
LORAIN-ELYRIA  CLEAR     57  44  62 SW7       30.10S
ASHTABULA      CLEAR     55  48  77 S5        30.10S
AKRON-CANTON   CLEAR     57  43  59 S3        30.12S
WOOSTER        CLEAR     56  47  71 CALM      30.13R
MANSFIELD      CLEAR     55  46  71 S6        30.13R
YOUNGSTOWN     PTCLDY    52  45  77 S6        30.11S
$$

OHZ042-051>053-060>062-070>072-077>081-280600-
  SOUTHWEST OHIO

CITY           SKY/WX    TMP DP  RH WIND       PRES   REMARKS
CINC-COVINGTON CLEAR     58  52  80 CALM      30.14R
CINC-LUNKEN    CLEAR     55  54  96 CALM      30.15R
HAMILTON       CLEAR     53  52  96 CALM      30.15R
DAYTON         CLEAR     59  46  62 CALM      30.15R
WRIGHT-PAT AFB CLEAR     56  51  81 CALM      30.14R
DAYTON GENERAL CLEAR     60  47  61 CALM      30.14R
WILMINGTON     CLEAR     55  53  93 CALM      30.14R
$$

OHZ036-037-039>041-045>050-054>059-063>069-073>076-082>088-280600-
  CENTRAL AND SOUTHEAST OHIO

CITY           SKY/WX    TMP DP  RH WIND       PRES   REMARKS
COLUMBUS       CLEAR     56  51  84 CALM      30.13R
OSU AIRPORT    CLEAR     56  47  71 CALM      30.13R
BOLTON FIELD   CLEAR     53  50  89 CALM      30.14S
RICKENBACK AFB NOT AVBL
NEWARK         PTCLDY    52  49  89 CALM      30.13S
MARION         CLEAR     56  46  69 SW6       30.13R
LANCASTER      CLEAR     51  50  96 CALM      30.14S
ZANESVILLE     PTCLDY    54  51  90 CALM      30.14R
NEW PHILLY     NOT AVBL
$$




USA.gov is the U.S. government's official web portal to all federal, state and local government web resources and services.